Detroit, MI

10:56 AM EDT on October 20, 2017 (GMT -0400)
Detroit City

Weather History for KDET - May, 2013

Change the Weather History Date:

Tuesday, May 21, 2013

  Actual Average Record
Temperature  
Mean Temperature 78 °F -  
Max Temperature 86 °F 72 °F 91 °F (1975)
Min Temperature 71 °F 51 °F 35 °F (2002)
Cooling Degree Days 13    
Growing Degree Days 28 (Base 50)    
Moisture  
Dew Point 63 °F    
Average Humidity 61    
Maximum Humidity 84    
Minimum Humidity 40    
Precipitation  
Precipitation 0.05 in - - ()
Sea Level Pressure  
Sea Level Pressure 29.77 in    
Wind  
Wind Speed 9 mph (SW)    
Max Wind Speed 17 mph    
Max Gust Speed 29 mph    
Visibility 10 miles    
Events Rain    
Averages and records for this station are not official NWS values.
T = Trace of Precipitation, MM = Missing Value Source: NWS Daily Summary

Daily Weather History Graph

Daily Weather History Graph

Search for Another Location

Airport or City:

Trip Planner

Search our weather history database for the weather conditions in past years. The results will help you decide how hot, cold, wet, or windy it might be!

Date:

Astronomy

May. 21, 2013 Rise Set
Actual Time 6:04 AM EDT 8:53 PM EDT
Civil Twilight 5:31 AM EDT 9:26 PM EDT
Nautical Twilight 4:50 AM EDT 10:07 PM EDT
Astronomical Twilight 4:02 AM EDT 10:56 PM EDT
Moon 5:01 PM EDT (5/21) 3:36 AM EDT (5/21)
Length of Visible Light 15h 54m
Length of Day
14h 48m
Waxing Gibbous, 84% of the Moon is Illuminated
May 21
Waxing Gibbous
May 25
Full
May 31
Last Quarter
Jun 8
New
Jun 16
First Quarter

Hourly Weather History & Observations

Time (EDT) Temp. Heat Index Dew Point Humidity Pressure Visibility Wind Dir Wind Speed Gust Speed Precip Events Conditions
12:53 AM 77.0 °F - 63.0 °F 62% 29.82 in 10.0 mi SW 6.9 mph - N/A   Clear
1:53 AM 75.9 °F - 64.0 °F 67% 29.82 in 10.0 mi SSW 6.9 mph - N/A   Clear
2:53 AM 75.0 °F - 64.9 °F 71% 29.80 in 10.0 mi SSW 8.1 mph - N/A   Clear
3:53 AM 73.9 °F - 64.9 °F 73% 29.80 in 10.0 mi SSW 8.1 mph - N/A   Clear
4:53 AM 73.9 °F - 64.9 °F 73% 29.79 in 10.0 mi SSW 6.9 mph - N/A   Clear
5:53 AM 72.0 °F - 64.9 °F 78% 29.81 in 10.0 mi South 6.9 mph - N/A   Partly Cloudy
6:53 AM 72.0 °F - 64.9 °F 78% 29.80 in 9.0 mi South 6.9 mph - N/A   Clear
7:53 AM 73.0 °F - 66.0 °F 79% 29.80 in 9.0 mi SSW 8.1 mph - N/A   Partly Cloudy
8:53 AM 75.0 °F - 66.9 °F 76% 29.78 in 10.0 mi SSW 10.4 mph - N/A   Clear
9:40 AM 75.2 °F - 66.2 °F 73% 29.80 in 10.0 mi SW 11.5 mph 20.7 mph N/A   Mostly Cloudy
9:53 AM 75.9 °F - 66.9 °F 74% 29.80 in 10.0 mi SSW 15.0 mph 26.5 mph N/A   Mostly Cloudy
10:05 AM 77.0 °F - 66.2 °F 69% 29.81 in 10.0 mi SSW 13.8 mph 20.7 mph N/A   Scattered Clouds
10:53 AM 80.1 °F 82.7 °F 68.0 °F 67% 29.79 in 10.0 mi SSW 10.4 mph - N/A   Scattered Clouds
11:53 AM 82.9 °F 83.7 °F 62.1 °F 49% 29.78 in 10.0 mi SW 9.2 mph 17.3 mph N/A   Clear
12:53 PM 84.0 °F 83.8 °F 59.0 °F 43% 29.76 in 10.0 mi SW 16.1 mph 23.0 mph N/A   Partly Cloudy
1:53 PM 84.0 °F 84.4 °F 61.0 °F 46% 29.76 in 10.0 mi SW 15.0 mph - N/A   Scattered Clouds
2:53 PM 80.1 °F 80.6 °F 57.9 °F 47% 29.76 in 10.0 mi SSW 16.1 mph 25.3 mph N/A   Overcast
3:53 PM 84.0 °F 84.0 °F 60.1 °F 44% 29.73 in 10.0 mi West 12.7 mph - N/A   Clear
4:53 PM 84.0 °F 83.3 °F 57.0 °F 40% 29.73 in 10.0 mi WSW 17.3 mph 28.8 mph N/A   Clear
5:53 PM 84.9 °F 84.4 °F 59.0 °F 41% 29.72 in 10.0 mi West 11.5 mph 21.9 mph N/A   Mostly Cloudy
6:53 PM 84.0 °F 83.5 °F 57.9 °F 41% 29.71 in 10.0 mi WSW 13.8 mph 21.9 mph N/A   Clear
7:53 PM 82.9 °F 82.6 °F 57.9 °F 42% 29.72 in 10.0 mi WSW 6.9 mph - N/A   Clear
8:53 PM 82.9 °F 82.8 °F 59.0 °F 44% 29.72 in 10.0 mi WNW 3.5 mph - N/A   Clear
9:53 PM 79.0 °F - 60.1 °F 52% 29.73 in 10.0 mi Calm Calm - N/A   Scattered Clouds
10:53 PM 75.9 °F - 62.1 °F 62% 29.75 in 10.0 mi SSW 4.6 mph - 0.00 in Rain Light Rain
11:53 PM 71.1 °F - 66.0 °F 84% 29.75 in 10.0 mi Calm Calm - 0.05 in   Overcast